| time (UTC) | temp F | wind direction | speed MPH | gust MPH | rain 1hr in | rain 24hr in | rain mn in | humidity % | barometer mb |
| 20260504081503 | 41 | 157 | 4.0 | 7.0 | 0.00 | 0.00 | 0.00 | 51 | 1004.3 |
| 20260504044556 | 50 | 157 | 4.0 | 6.0 | 0.00 | 0.00 | 0.00 | 36 | 1005.5 |
| 20260504043038 | 50 | 157 | 0.0 | 1.0 | 0.00 | 0.00 | 0.00 | 35 | 1005.6 |
| 20260504041536 | 48 | 157 | 0.0 | 4.0 | 0.00 | 0.00 | 0.00 | 38 | 1005.4 |
| 20260504040035 | 47 | 157 | 7.0 | 10.0 | 0.00 | 0.00 | 0.00 | 43 | 1005.1 |
| 20260504034514 | 47 | 157 | 9.0 | 11.0 | 0.00 | 0.00 | 0.00 | 43 | 1005.0 |
| 20260504033055 | 46 | 157 | 9.0 | 11.0 | 0.00 | 0.00 | 0.00 | 45 | 1004.9 |
| 20260504031558 | 46 | 157 | 10.0 | 11.0 | 0.00 | 0.00 | 0.00 | 44 | 1004.8 |
| 20260504030031 | 49 | 157 | 9.0 | 11.0 | 0.00 | 0.00 | 0.00 | 38 | 1004.7 |
| 20260504024528 | 52 | 157 | 6.0 | 11.0 | 0.00 | 0.00 | 0.00 | 34 | 1004.4 |
| 20260504023006 | 55 | 157 | 7.0 | 9.0 | 0.00 | 0.00 | 0.00 | 28 | 1004.3 |
| 20260504021503 | 57 | 157 | 8.0 | 10.0 | 0.00 | 0.00 | 0.00 | 28 | 1004.3 |
| 20260504020041 | 59 | 157 | 8.0 | 10.0 | 0.00 | 0.00 | 0.00 | 26 | 1004.2 |
| 20260504014548 | 62 | 157 | 10.0 | 15.0 | 0.00 | 0.00 | 0.00 | 20 | 1004.2 |
| 20260504013019 | 63 | 157 | 9.0 | 13.0 | 0.00 | 0.00 | 0.00 | 19 | 1004.2 |
| 20260504011518 | 63 | 157 | 9.0 | 13.0 | 0.00 | 0.00 | 0.00 | 19 | 1004.3 |
| 20260504010006 | 64 | 157 | 8.0 | 14.0 | 0.00 | 0.00 | 0.00 | 19 | 1004.3 |
| 20260504004507 | 65 | 157 | 10.0 | 15.0 | 0.00 | 0.00 | 0.00 | 18 | 1004.3 |
| 20260504003009 | 66 | 157 | 12.0 | 18.0 | 0.00 | 0.00 | 0.00 | 17 | 1004.2 |
| 20260504001505 | 66 | 157 | 7.0 | 12.0 | 0.00 | 0.00 | 0.00 | 16 | 1004.3 |
| 20260504000004 | 65 | 157 | 9.0 | 13.0 | 0.00 | 0.00 | 0.00 | 16 | 1004.4 |
| 20260503234506 | 65 | 157 | 10.0 | 15.0 | 0.00 | 0.00 | 0.00 | 17 | 1004.4 |
| 20260503233003 | 64 | 157 | 10.0 | 17.0 | 0.00 | 0.00 | 0.00 | 17 | 1004.4 |
| 20260503231503 | 66 | 157 | 12.0 | 18.0 | 0.00 | 0.00 | 0.00 | 16 | 1004.3 |
| 20260503230045 | 65 | 156 | 14.0 | 18.0 | 0.00 | 0.00 | 0.00 | 16 | 1004.4 |
| 20260503224546 | 65 | 156 | 10.0 | 15.0 | 0.00 | 0.00 | 0.00 | 17 | 1004.4 |
| 20260503223026 | 66 | 156 | 12.0 | 18.0 | 0.00 | 0.00 | 0.00 | 15 | 1004.6 |
| 20260503221526 | 66 | 156 | 11.0 | 19.0 | 0.00 | 0.00 | 0.00 | 16 | 1004.7 |
| 20260503220006 | 65 | 156 | 13.0 | 20.0 | 0.00 | 0.00 | 0.00 | 17 | 1004.9 |
| 20260503214504 | 66 | 156 | 6.0 | 14.0 | 0.00 | 0.00 | 0.00 | 15 | 1005.1 |
| 20260503213046 | 67 | 156 | 12.0 | 22.0 | 0.00 | 0.00 | 0.00 | 17 | 1005.4 |
| 20260503211545 | 69 | 155 | 10.0 | 16.0 | 0.00 | 0.00 | 0.00 | 15 | 1005.4 |
| 20260503210025 | 67 | 155 | 13.0 | 22.0 | 0.00 | 0.00 | 0.00 | 17 | 1005.7 |
| 20260503204528 | 67 | 155 | 10.0 | 17.0 | 0.00 | 0.00 | 0.00 | 16 | 1005.7 |
| 20260503203010 | 68 | 154 | 7.0 | 17.0 | 0.00 | 0.00 | 0.00 | 15 | 1005.9 |
| 20260503201503 | 69 | 154 | 10.0 | 15.0 | 0.00 | 0.00 | 0.00 | 15 | 1006.1 |
| 20260503200042 | 66 | 153 | 11.0 | 18.0 | 0.00 | 0.00 | 0.00 | 16 | 1006.4 |
| 20260503194542 | 66 | 153 | 14.0 | 22.0 | 0.00 | 0.00 | 0.00 | 16 | 1006.5 |
| 20260503193036 | 65 | 153 | 10.0 | 15.0 | 0.00 | 0.00 | 0.00 | 15 | 1006.8 |
| 20260503191519 | 65 | 152 | 6.0 | 12.0 | 0.00 | 0.00 | 0.00 | 17 | 1006.9 |
| 20260503190106 | 66 | 157 | 2.0 | 9.0 | 0.00 | 0.00 | 0.00 | 16 | 1007.1 |
| 20260503184558 | 66 | 157 | 3.0 | 8.0 | 0.00 | 0.00 | 0.00 | 17 | 1007.5 |
| 20260503183052 | 67 | 156 | 6.0 | 15.0 | 0.00 | 0.00 | 0.00 | 17 | 1007.7 |
| 20260503181535 | 64 | 143 | 2.0 | 6.0 | 0.00 | 0.00 | 0.00 | 21 | 1007.9 |
| 20260503180018 | 62 | 148 | 3.0 | 8.0 | 0.00 | 0.00 | 0.00 | 25 | 1008.3 |
| 20260503174509 | 61 | 148 | 2.0 | 7.0 | 0.00 | 0.00 | 0.00 | 25 | 1008.6 |
| 20260503173055 | 60 | 147 | 5.0 | 8.0 | 0.00 | 0.00 | 0.00 | 26 | 1008.8 |
| 20260503171545 | 59 | 145 | 3.0 | 7.0 | 0.00 | 0.00 | 0.00 | 28 | 1009.0 |